Content
SEND FEEDBACK

Daily
Averages
Monthly
Summary
Canada

VANCOUVER - CITY HALL, BRITISH COLUMBIA


Home > North America > Canada > British Columbia
Elevation: 283 feet     Latitude: 49 17N     Longitude: 123 07W

WEATHER
 
SELECT A DAY
Number of Records: 170,347;   Date Range: 4/23/95 - 9/18/14
 
SHARE

PRINT THIS DATA

[ ← Previous Day ]
WEATHER ALMANAC - NOVEMBER 16, 2013
[ Next Day → ]
[ °C ]   °F
Weather ElementAverageHighLow
Temperature38.8 °F41.7 °F (2:00 pm)35.1 °F (5:00 am)
Dewpoint34.9 °F37.6 °F (3:00 pm)29.5 °F (11:00 pm)
Humidity85.4 %95 % (8:00 am)68 % (11:00 pm)
Barometer29.52 in29.70 in (11:00 pm)29.31 in (1:00 am)
Wind Speed1.3 mph2.3 mph (1:00 am)
Weather ElementAverage
Wind DirectionESE (127.3 °)

Weather ElementTotal
Precipitation---
Heating Degree Days26.6 (Base 65)
Averaged from 27 records on November 16, 2013
WEATHER CONDITIONS BREAKOUT
WIND DIRECTION BREAKOUT
WEATHER BY HOUR - NOVEMBER 16, 2013
[ °C ]   °F
Local TimeTemperatureDewpointHumidityBarometerVisibilityWind DirectionWind SpeedGust SpeedPrecipitationEventsConditions
1:00 AM37.2 °F35.6 °F94 %29.31 inNNW (340°)2.3 mph
2:00 AM37.4 °F35.2 °F92 %29.33 inNorth (10°)1.2 mph
3:00 AM38.8 °F34.5 °F84 %29.35 inNNW (340°)2.3 mph
4:00 AM36.0 °F34.0 °F91 %29.37 inNNE (30°)1.2 mph
4:00 AM36.0 °F34.3 °F94 %29.37 inNNE (30°)1.2 mph
5:00 AM35.1 °F33.6 °F94 %29.39 inNorth (10°)1.2 mph
6:00 AM35.1 °F33.6 °F94 %29.41 inNNE (20°)2.3 mph
7:00 AM35.8 °F34.3 °F94 %29.44 inNE (40°)1.2 mph
8:00 AM36.3 °F34.9 °F95 %29.47 inNNE (30°)2.3 mph
9:00 AM38.5 °F37.0 °F95 %29.49 inNE (40°)1.2 mph
10:00 AM40.0 °F37.0 °F86 %29.52 inCalm
10:00 AM39.7 °F37.2 °F91 %29.52 inCalm
11:00 AM40.3 °F36.9 °F88 %29.54 inCalm
12:00 PM41.4 °F37.4 °F86 %29.54 inSouth (170°)1.2 mph
1:00 PM41.5 °F37.4 °F85 %29.54 inSSW (200°)1.2 mph
2:00 PM41.7 °F37.4 °F85 %29.55 inSSW (200°)1.2 mph
3:00 PM41.7 °F37.6 °F85 %29.57 inCalm
4:00 PM41.0 °F37.0 °F79 %29.59 inNorth1.2 mph
4:00 PM41.2 °F36.7 °F84 %29.59 inNorth (360°)1.2 mph
5:00 PM40.6 °F34.7 °F79 %29.60 inNorth (350°)2.3 mph
6:00 PM39.4 °F34.9 °F84 %29.61 inNNE (30°)1.2 mph
7:00 PM38.7 °F32.9 °F80 %29.62 inNNE (30°)1.2 mph
8:00 PM39.2 °F31.1 °F73 %29.63 inNorth (10°)2.3 mph
9:00 PM38.3 °F33.1 °F81 %29.66 inNE (50°)1.2 mph
10:00 PM39.0 °F33.0 °F70 %29.68 inNNW (330°)1.2 mph
10:00 PM38.8 °F31.3 °F74 %29.68 inNNW (330°)1.2 mph
11:00 PM39.2 °F29.5 °F68 %29.70 inNorth (360°)2.3 mph
Hourly data recorded from CWWA, located miles away from Vancouver - City Hall, British Columbia







STORIES FROM OUR PARTNERS